Location: Unspecified
(0.0000°N, 0.0000°E)
Time: 00:39:09
(UTC+00:00)

USA 125 - Pass Details

Date: 18 May 2026
Orbit: 363 x 39930 km, 64.0° (Epoch: 9 October)

Event Time Altitude Azimuth Distance (km) Brightness Sun altitude
Rises 19:08:41 0° 344° (NNW) 12,321 ? -17.0°
Reaches altitude 10° 19:22:58 10° 354° (N) 6,903 ? -20.3°
Maximum altitude 19:33:56 24° 41° (NE) 2,434 ? -22.9°
Enters shadow 19:35:06 22° 57° (ENE) 2,168 ? -23.1°
